Flag for Denmark Weather past 2 weeks in Skagen, Denmark

Now
43 °F

Mostly cloudy.


Feels Like: 39 °F
Forecast: 39 / 44 °F
Wind: 7 mph from South

Location: Gothenburg / Save

Current Time: Mar 30, 2015 at 12:20:37 AM

Latest Report: Mar 29, 2015 at 10:50 PM


Visibility: N/A

Pressure: 28.97 "Hg

Humidity: 87%

Dew point: 39 °F

Location of SkagenLocation

Historic Weather in Skagen — Graph

°F

Skagen temperature yesterday

Maximum temperature yesterday: 46 °F (at 1:50 PM)
Minimum temperature yesterday: 37 °F (at 12:20 AM)
Average temperature yesterday: 43 °F

Past Weeks' High & Low Weather Summary

 TemperatureHumidityPressure
High54 °F (Mar 17, 1:50 PM)100% (Mar 19, 7:20 AM)30.74 "Hg (Mar 19, 7:20 AM)
Low21 °F (Mar 22, 1:20 AM)43% (Mar 19, 10:50 AM)28.97 "Hg (Mar 29, 10:50 PM)
Average40 °F78%30.10 "Hg
* Reported Mar 14 9:20 PM — Mar 29 10:50 PM, Skagen, Weather by CustomWeather, © 2015

Note: Actual official high and low records may vary slightly from our data, if they occured in-between our weather recording intervals... More about our weather records

Advertising

Skagen weather history for previous 24 hours

 ConditionsComfort  
Time TempWeatherWind HumidityBarometerVisibility
10:50 PM
Sun, Mar 29
43 °FMostly cloudy.7 mph87%28.97 "HgN/A
10:20 PM43 °FMostly cloudy.6 mph87%29.00 "HgN/A
9:50 PM43 °FOvercast.7 mph87%29.00 "HgN/A
9:20 PM43 °FPartly cloudy.7 mph87%29.03 "HgN/A
8:50 PM43 °FMostly cloudy.6 mph93%29.03 "HgN/A
8:20 PM43 °FCloudy.7 mph87%29.03 "HgN/A
7:50 PM43 °FMore clouds than sun.7 mph87%29.03 "HgN/A
7:20 PM43 °FOvercast.5 mph87%29.06 "HgN/A
6:50 PM43 °FBroken clouds.6 mph87%29.06 "HgN/A
6:20 PM45 °FPartly sunny.7 mph81%29.09 "HgN/A
5:50 PM45 °FLow clouds.7 mph81%29.09 "HgN/A
5:20 PM45 °FLow clouds.6 mph81%29.09 "HgN/A
4:50 PM45 °FMore clouds than sun.6 mph87%29.12 "HgN/A
4:20 PM45 °FMore clouds than sun.8 mph81%29.15 "HgN/A
3:50 PM43 °FBroken clouds.9 mph87%29.15 "HgN/A
3:20 PM45 °FMore clouds than sun.8 mph81%29.15 "HgN/A
2:50 PM45 °FBroken clouds.8 mph81%29.18 "HgN/A
2:20 PM45 °FMostly cloudy.10 mph81%29.18 "HgN/A
1:50 PM46 °FMore clouds than sun.8 mph82%29.18 "HgN/A
1:20 PM45 °FPartly sunny.10 mph87%29.21 "HgN/A
12:50 PM45 °FMore clouds than sun.10 mph87%29.21 "HgN/A
12:20 PM45 °FMostly cloudy.12 mph87%29.21 "HgN/A
11:50 AM45 °FFog.10 mph87%29.21 "Hg6 mi
11:20 AM45 °FFog.9 mph87%29.21 "Hg6 mi
10:50 AM43 °FFog.9 mph93%29.21 "Hg4 mi
10:20 AM43 °FFog.7 mph100%29.21 "Hg3 mi
9:20 AM43 °FLight rain. Low clouds.8 mph93%29.24 "Hg2 mi
8:50 AM43 °FLight rain. Mostly cloudy.9 mph93%29.24 "Hg3 mi
8:20 AM43 °FLight rain. Mostly cloudy.10 mph93%29.24 "Hg4 mi
7:50 AM43 °FLight rain. Mostly cloudy.12 mph93%29.24 "Hg4 mi
6:50 AM43 °FLight rain. Mostly cloudy.14 mph93%29.27 "Hg2 mi
6:20 AM41 °FLight rain. Mostly cloudy.15 mph100%29.27 "Hg3 mi
5:50 AM41 °FLight rain. Overcast.18 mph93%29.30 "Hg1 mi
5:20 AM41 °FLight rain. Low clouds.18 mph93%29.33 "Hg1 mi
4:50 AM41 °FFog.18 mph93%29.33 "Hg2 mi
4:20 AM41 °FRain. Mostly cloudy.21 mph93%29.33 "Hg2 mi
3:50 AM41 °FLight rain. Mostly cloudy.20 mph93%29.36 "Hg4 mi
3:20 AM41 °FLight rain. Mostly cloudy.18 mph87%29.39 "Hg2 mi
1:50 AM39 °FLight rain. Low clouds.16 mph93%29.42 "Hg2 mi
1:20 AM39 °FRain. Low clouds.20 mph87%29.45 "Hg2 mi
12:50 AM37 °FLight rain. Low clouds.20 mph93%29.47 "Hg4 mi
12:20 AM37 °FLight rain. Mostly cloudy.21 mph87%29.50 "Hg4 mi
Weather by CustomWeather, © 2015

See weather overviewHow to use our weather pages